Location: Azul
(36.7830°S, 59.8500°W)
Time: 20:44:02
(UTC-03:00)

RS-44 - Pass Details

Date: 21 September 2024
Orbit: 1174 x 1511 km, 82.5° (Epoch: 11 October)

Event Time Altitude Azimuth Distance (km) Brightness Sun altitude
Rises 03:11:54 0° 188° (S) 4,448 ? -41.5°
Reaches altitude 10° 03:14:39 10° 188° (S) 3,510 ? -41.0°
Enters shadow 03:20:02 46° 191° (SSW) 1,885 ? -40.2°
